Voltar ao catálogo

INTELSAT 33E DEB

AtivoMEO
NORAD 64396·DEBRIS· XX

Lançado Aug 24, 2016 de Guiana Space Centre

Loading…

Próximas Passagens (próximas 24 horas)

TLE

AtualizadoSource: Space-Track

Época: Sep 13, 2026, 14:21 UTC

1 64396U 16053AA  26256.59826177  .00000001  00000-0  00000-0 0  9990
2 64396   1.8049  81.4040 0121677  65.3151 296.7568  0.98613057  6855

Acompanhe INTELSAT 33E DEB em tempo real com AllMySat

Download on the App Store